Tracking 27420 objects as of 28-May-2023
HD Live streaming from Space Station
objects crossing your sky now

COSMOS 1037

Track COSMOS 1037 now!
10-day predictions
COSMOS 1037 is classified as:


NORAD ID: 11046
Int'l Code: 1978-091D
Perigee: 1,468.3 km
Apogee: 1,488.5 km
Inclination: 74.0 °
Period: 115.3 minutes
Semi major axis: 7849 km
RCS: 0.7202 m2 (medium)
Launch date: October 4, 1978
Source: Commonwealth of Independent States (former USSR) (CIS)
Launch site: PLESETSK MISSILE AND SPACE COMPLEX (PKMTR)
Your satellite tracking list
Your tracking list is empty




NASA's NSSDC Master Catalog

Two Line Element Set (TLE):
1 11046U 78091D   23147.83610097 -.00000000  00000-0  10279-3 0  9991
2 11046  74.0355  85.6300 0012881 168.8056 250.7986 12.48384455 34833
Source of the keplerian elements: AFSPC